National Oceanic Atmosphere Administration National Weather Service Headquarters National Weather Service Headquarters
NOAA logo WFO Anchorage Scalable transition graphic NWS logo
Transition from title bar to navgation bar   Aviation Weather 15 AKDT 
blankspace Home   |   Mobile   |   Social Media   |   Mesonet   |   Surface Map   |   Radar   |   Submit Storm Reports =23 GMT 

LocalForecast by City, St or Zip Code

spacer

Forecasts/Products
  Public
  Forecast Discussion
    - With Glossary
  Aviation
  Marine
  Hydrology(RFC)
  Rivers & Lakes AHPS
  Ice Desk
  TV Weather
  Fire Weather
  Avalanche
  Travel 511
  Graphical
  xml logo RSS Feeds
  Marine FTPMail

spacer

Data
  Mesonet
  Model Graphics
  Local Model
  Observations
  Marine Obs
  Satellite/Radar
  Vent Factor
  Soaring Index
  Weather Links

spacer

Climate
  PAFC Climate
  Interactive Climate
  PAFC Records
  Local
  National
  More

spacer

Outreach
  About Us
  Community Outreach
  Kids' Page
  Tour/Speaker Request
  Weather Classroom
  Social Media

spacer

Reports
  COOP Observers
  Local Storm Reports
  Spotter Page
  Submit a Storm Report

spacer

Miscellaneous
  Archived Alaska Weather Stories
  Student Career Opportunities
  Research Papers

spacer

Print Friendly/
Low Bandwidth

  Public Forecasts
  Marine Forecasts

spacer

Contact Us
  mailto pafcweb

spacer

Facebook Follow the National Weather Service in Alaska on Twitter
USA.gov is the U.S. government's official web portal to all federal, state and local government web resources and services.


 ICAO ID:   AAWU Graphics

Internet access to TAFs and METAR observations is for planning purposes only. We can not guarantee the timeliness of internet products. Before flying please get a formal pilot briefing (1-800-992-7433) and ALWAYS file a Flight Plan!Pilot briefings are provided to licensed aircraft pilots, ONLY! Others may not use the above number to obtain weather information.

Check out the Key to TAFs and METARs for help with decoding the information.

A 12 hour summary of TAFs can be found here.

PANC TAF
PANC 022103Z 0221/0324  15013G18KT P6SM FEW040 SCT080 BKN120
     FM030000 17006KT P6SM VCSH SCT040 BKN060
     FM030500 34006KT P6SM -SHRA SCT020 BKN030
     FM031400 34006KT P6SM SCT040 BKN080
     FM032000 35008KT P6SM FEW050 SCT100=


METAR PANC 022253Z 15010G22KT 10SM BKN043 BKN060 BKN200 17/08 A2987 RMK
     AO2 SLP116 T01720078=
METAR PANC 022253Z 15010G22KT 10SM BKN043 BKN060 BKN200 17/08 A2987=
METAR PANC 022153Z 14011G32KT 10SM BKN041 BKN095 BKN200 17/08 A2987
    RMK AO2 PK WND 15032/2147 SLP115 T01670078=
METAR PANC 022153Z 14011G32KT 10SM BKN041 BKN095 BKN200 17/08 A2987=
METAR PANC 022053Z 15011G18KT 10SM FEW040 SCT095 BKN200 16/08 A2987 RMK
     AO2 SLP114 T01610078 51010=
METAR PANC 022053Z 15011G18KT 10SM FEW040 SCT095 BKN200 16/08 A2987=
METAR PANC 021953Z 15011G21KT 10SM FEW040 SCT080 BKN130 BKN200 16/08
     A2986 RMK AO2 SLP112 T01610078=
METAR PANC 021953Z 15011G21KT 10SM FEW040 SCT080 BKN130 BKN200 16/08
     A2986=


National Weather Service
Anchorage Forecast Office
6930 Sand Lake Road
Anchorage, Ak 99502
(907) 266-5105 M-F/7-5pm
About Us
Career Opportunities
Glossary
Disclaimer
Privacy Policy
Credits
Alaska Weather Information Line:
1-800-472-0391